Home > Time Zones > World Clock > Weather > Egypt > Cairo > Past weeks

Flag for Egypt Weather past 2 weeks in Cairo, Egypt

Now
55 °F

Sunny.


Feels Like: 53 °F
Forecast: 52 / 69 °F
Wind: 9 mph from Southwest

Location: Cairo Airport

Current Time: Jan 30, 2015 at 9:15:17 AM

Latest Report: Jan 30, 2015 at 8:30 AM


Visibility: 10 mi

Pressure: 30.07 "Hg

Humidity: 36%

Dew point: 28 °F

Location of CairoLocation

Historic Weather in Cairo — Graph

°F

Cairo temperature yesterday

Maximum temperature yesterday: 66 °F (at 3:00 PM)
Minimum temperature yesterday: 50 °F (at 7:00 AM)
Average temperature yesterday: 58 °F

Past Weeks' High & Low Weather Summary

 TemperatureHumidityPressure
High79 °F (Jan 22, 1:30 PM)100% (Jan 25, 2:30 AM)30.36 "Hg (Jan 25, 2:30 AM)
Low46 °F (Jan 20, 3:30 AM)9% (Jan 23, 3:00 PM)29.89 "Hg (Jan 27, 3:00 PM)
Average60 °F54%30.08 "Hg
* Reported Jan 15 8:00 AM — Jan 30 8:00 AM, Cairo, Weather by CustomWeather, © 2014

Note: Actual official high and low records may vary slightly from our data, if they occured in-between our weather recording intervals... More about our weather records

Advertising

Cairo weather history for previous 24 hours

 ConditionsComfort  
Time TempWeatherWind HumidityBarometerVisibility
8:00 AM
Jan 30
54 °FSunny.10 mph38%30.07 "Hg10 mi
7:30 AM54 °FClear.12 mph38%30.04 "Hg4 mi
7:00 AM52 °FClear.12 mph41%30.04 "Hg4 mi
6:30 AM52 °FClear.12 mph41%30.01 "Hg4 mi
6:00 AM52 °FClear.12 mph41%30.01 "Hg10 mi
5:30 AM54 °FClear.9 mph38%29.98 "Hg10 mi
5:00 AM54 °FClear.10 mph35%29.98 "Hg10 mi
4:30 AM54 °FClear.8 mph38%29.98 "Hg10 mi
4:00 AM54 °FClear.7 mph35%29.95 "Hg10 mi
3:30 AM54 °FClear.7 mph35%29.98 "Hg10 mi
3:00 AM54 °FClear.7 mph35%29.98 "Hg10 mi
2:30 AM52 °FClear.6 mph38%29.98 "Hg10 mi
2:00 AM52 °FClear.6 mph41%29.98 "Hg10 mi
1:30 AM52 °FClear.5 mph41%29.98 "Hg10 mi
1:00 AM55 °FClear.6 mph36%29.98 "Hg10 mi
12:30 AM55 °FClear.5 mph38%29.98 "Hg10 mi
12:00 AM55 °FClear.5 mph38%29.98 "Hg10 mi
11:30 PM
Jan 29
55 °FClear.6 mph41%29.98 "Hg10 mi
11:00 PM55 °FClear.6 mph41%29.98 "Hg10 mi
10:30 PM55 °FClear.6 mph38%29.98 "Hg10 mi
10:00 PM55 °FClear.6 mph38%29.98 "Hg10 mi
9:30 PM57 °FClear.5 mph39%29.98 "Hg10 mi
9:00 PM57 °FClear.5 mph39%29.98 "Hg10 mi
8:30 PM57 °FClear.5 mph39%29.98 "Hg10 mi
8:00 PM59 °FClear.3 mph36%29.95 "Hg10 mi
7:30 PM61 °FPassing clouds.7 mph31%29.95 "HgN/A
7:00 PM61 °FPassing clouds.7 mph31%29.95 "HgN/A
6:30 PM63 °FPassing clouds.6 mph30%29.95 "HgN/A
6:00 PM63 °FPassing clouds.8 mph30%29.92 "HgN/A
5:30 PM63 °FPassing clouds.8 mph30%29.92 "HgN/A
5:00 PM64 °FScattered clouds.7 mph26%29.92 "HgN/A
4:30 PM66 °FPassing clouds.7 mph24%29.92 "HgN/A
4:00 PM66 °FPassing clouds.7 mph24%29.92 "HgN/A
3:30 PM66 °FPassing clouds.7 mph24%29.92 "HgN/A
3:00 PM66 °FPassing clouds.7 mph24%29.92 "HgN/A
2:30 PM64 °FPassing clouds.7 mph30%29.92 "HgN/A
2:00 PM64 °FPassing clouds.7 mph30%29.92 "HgN/A
1:30 PM64 °FSunny.8 mph28%29.92 "Hg10 mi
1:00 PM64 °FSunny.5 mph28%29.95 "Hg10 mi
12:30 PM64 °FSunny.5 mph32%29.95 "Hg10 mi
12:00 PM64 °FClear.5 mph32%29.98 "Hg4 mi
11:30 AM61 °FClear.No wind36%30.01 "Hg4 mi
11:00 AM61 °FClear.No wind36%30.01 "Hg4 mi
10:30 AM61 °FClear.3 mph36%30.01 "Hg4 mi
10:00 AM61 °FHaze.3 mph36%30.01 "Hg2 mi
9:30 AM57 °FHaze.3 mph39%30.01 "Hg2 mi
9:00 AM57 °FHaze.3 mph39%30.01 "Hg2 mi
Weather by CustomWeather, © 2014

See weather overviewHow to use our weather pages